Location: Atherton
(17.2661°S, 145.4859°E)
Time: 23:05:44
(UTC+10:00)

Transit 2A - Pass Details

Date: 18 June 2025
Orbit: 598 x 948 km, 66.7° (Epoch: 19 July)

Event Time Altitude Azimuth Distance (km) Brightness Sun altitude
Rises 21:06:33 0° 184° (S) 3,409 - -44.6°
Reaches altitude 10° 21:09:35 10° 171° (S) 2,404 - -45.3°
Maximum altitude 21:13:58 24° 118° (ESE) 1,548 - -46.3°
Drops below altitude 10° 21:17:59 10° 64° (ENE) 2,198 - -47.2°
Sets 21:20:37 0° 50° (NE) 3,050 - -47.8°
